Погода в Чарышском

Россия / Алтайский край     51°23′50″N   83°33′25″E
В апреле 2022 года жителям России запретили посещать сайт meteo.paraplan.net по решению Генеральной прокуратуры. Аудитория сайта уменьшилась в 10 раз. Владельцы сайта не видят смысла в поддержке погодного сервера в таких условиях. Сайт будет закрыт в октябре.
темп.,
°C
ветер,
м/с
пор.,
м/с
влажн.,
%
обл.,
%
осадки,
мм/ч
давл.,
гПа
погр.,
м
25 сентября, вс
вс2501:00+7вюв224738 0.0 101711
04:00+6юв22615 0.0 101711
07:00+7вюв226648 0.0 101611
10:00+15юв223692 0.0 1014190
13:00+23сз112411 0.0 1012854
16:00+24зсз342514 0.0 10101781
19:00+18з22386 0.0 101011
22:00+12ююв33555 0.0 101120
26 сентября, пн
пн2601:00+12ююв3357100 0.0 101032
04:00+12ююв335412 0.0 100931
07:00+11ююв335443 0.0 100925
10:00+21зюз61129100 0.0 10071054
13:00+23з7102683 0.0 10081652
16:00+24зюз71123100 0.0 10052765
19:00+15ссз5754100 0.0 1007234
22:00+11ююв2377100 0.1 100863
27 сентября, вт
вт2701:00+11ю3686100 1.3 1008173
04:00+12юв3489100 1.4 1005114
07:00+11ю118879 2.0 100511
10:00+14юз6127498 1.3 10051019
13:00+16зюз11154514 1.3 10061997
16:00+12з9126675 0.9 10091393
19:00+9юз61189100 2.6 1012764
22:00+8ю229099 1.6 101247
28 сентября, ср
ср2801:00+8юз41083100 2.3 1012427
04:00+8юз61183100 0.3 1012858
07:00+6юз3788100 0.8 1012198
10:00+8юз51185100 0.7 10121215
13:00+6юз61088100 2.3 10131319
16:00+9зюз71173100 0.6 10131514
19:00+6з588399 1.1 1014534
22:00+3з488595 0.3 1017620
29 сентября, чт
чт2901:00+2з379286 0.4 1018553
04:00+2зсз2496100 0.1 1018364
07:00+1зсз2498100 0.6 1018221
10:00+1з2496100 1.0 1018336
13:00+2зсз5792100 2.2 1018699
16:00+3з6877100 0.6 10181037
19:00+1зсз368498 0.8 1019137
22:00−1юз118797 0.0 102010